Location: Newark
(13.8625°N, 100.5144°E)
Time: 01:17:03
(UTC+00:00)

AO-73 - Visible Passes

Search period start: 05 August 2021 00:00
Search period end: 15 August 2021 00:00
Orbit: 581 x 662 km, 97.6° (Epoch: 04 August)

Date Brightness Start Highest point End Pass type
(mag) Time Alt. Az. Time Alt. Az. Time Alt. Az.
05 Aug ? 20:55:33 10° ENE 20:58:14 15° E 21:00:54 10° SE visible
05 Aug ? 22:30:25 10° NNW 22:34:12 26° WNW 22:37:58 10° SW visible
06 Aug ? 21:12:10 10° NE 21:15:58 26° E 21:19:46 10° SSE visible
07 Aug ? 21:29:20 10° NNE 21:33:41 46° E 21:38:02 10° S visible
08 Aug ? 21:46:50 10° NNE 21:51:23 82° E 21:55:55 10° S visible
09 Aug ? 22:04:37 10° N 22:09:04 56° WNW 22:13:30 10° SSW visible
10 Aug ? 20:48:49 10° ENE 20:50:43 12° E 20:52:37 10° ESE visible
10 Aug ? 22:22:41 10° NNW 22:26:44 32° WNW 22:30:46 10° SW visible
11 Aug ? 21:04:59 10° NE 21:08:28 22° E 21:11:54 10° SSE visible
11 Aug ? 22:41:10 10° NNW 22:44:21 19° WNW 22:47:32 10° WSW visible
12 Aug ? 21:21:59 10° NNE 21:26:11 37° E 21:30:21 10° SSE visible
13 Aug ? 21:39:23 10° NNE 21:43:54 66° E 21:48:22 10° S visible
14 Aug ? 21:57:04 10° N 22:01:35 70° WNW 22:06:03 10° SSW visible
